Terug naar catalogus

STARLINK-2712

ActiefCommunicatieVLEO
NORAD 48674·PAYLOAD·🇺🇸 United States

Gelanceerd May 26, 2021 vanaf Cape Canaveral Space Force Station

Loading…

Volgende Passages (komende 24 uur)

TLE

VersSource: CelesTrak SupGP

Epoch: Sep 14, 2026, 21:32 UTC

1 48674C 21044AN  26257.89770833 -.00010602  00000+0 -34088-3 0  2570
2 48674  53.1575 315.0158 0001153  88.4654 120.3934 15.31713102    12

Volg STARLINK-2712 in realtime met AllMySat

Download on the App Store